Weather History for Fort Smith, AR

Change the Weather History Date:

Sunday, August 5, 2012

  Actual Average Record
Temperature  
Mean Temperature 91 °F 83 °F  
Max Temperature 102 °F 94 °F 113 °F (2011)
Min Temperature 79 °F 72 °F 54 °F (1894)
Cooling Degree Days 26 18  
Month to date cooling degree days 136 90  
Year to date cooling degree days 1964 1255  
Since 1 June cooling degree days 1395 1011  
Growing Degree Days 40 (Base 50)    
Moisture  
Dew Point 67 °F    
Average Humidity 49    
Maximum Humidity 69    
Minimum Humidity 29    
Precipitation  
Precipitation 0.00 in 0.09 in 1.64 in (2010)
Month to date precipitation 0.00 0.45  
Year to date precipitation 24.28 27.22  
Sea Level Pressure  
Sea Level Pressure 30.02 in    
Wind  
Wind Speed 4 mph (ENE)    
Max Wind Speed 12 mph    
Max Gust Speed 14 mph    
Visibility 10 miles    
Events      
T = Trace of Precipitation, MM = Missing Value Source: NWS Daily Summary

Daily Weather History Graph

Daily Weather History Graph

Search for Another Location

Airport:

Trip Planner

Search our weather history database for the weather conditions in past years. The results will help you decide how hot, cold, wet, or windy it might be!

Date:

Astronomy

Aug. 05, 2012 Rise Set
Actual Time 6:29 AM CDT 8:16 PM CDT
Civil Twilight 6:02 AM CDT 8:44 PM CDT
Nautical Twilight 5:28 AM CDT 9:17 PM CDT
Astronomical Twilight 4:53 AM CDT 9:52 PM CDT
Moon 10:07 PM CDT (8/5) 10:08 AM CDT (8/5)
Length of Visible Light 14h 42m
Length of Day
13h 46m
Waning Gibbous, 86% of the Moon is Illuminated
Aug 5
Waning Gibbous
Aug 9
Last Quarter
Aug 17
New
Aug 24
First Quarter
Aug 31
Full

Hourly Weather History & Observations

Time (CDT) Temp. Heat Index Dew Point Humidity Pressure Visibility Wind Dir Wind Speed Gust Speed Precip Events Conditions
12:53 AM 84.9 °F 87.6 °F 66.9 °F 55% 29.95 in 10.0 mi ESE 3.5 mph - N/A   Clear
1:53 AM 84.9 °F 87.1 °F 66.0 °F 53% 29.95 in 10.0 mi Calm Calm - N/A   Clear
2:53 AM 82.9 °F 85.8 °F 68.0 °F 60% 29.98 in 10.0 mi North 4.6 mph - N/A   Clear
3:53 AM 82.9 °F 86.5 °F 69.1 °F 63% 30.01 in 10.0 mi ESE 4.6 mph - N/A   Clear
4:53 AM 82.0 °F 85.5 °F 69.1 °F 65% 30.01 in 10.0 mi Calm Calm - N/A   Scattered Clouds
5:53 AM 82.9 °F 86.5 °F 69.1 °F 63% 30.05 in 10.0 mi Calm Calm - N/A   Clear
6:53 AM 80.1 °F 82.9 °F 69.1 °F 69% 30.06 in 10.0 mi Calm Calm - N/A   Clear
7:53 AM 82.0 °F 85.9 °F 70.0 °F 67% 30.07 in 10.0 mi ENE 8.1 mph - N/A   Clear
8:53 AM 86.0 °F 90.7 °F 70.0 °F 59% 30.07 in 10.0 mi East 5.8 mph - N/A   Clear
9:53 AM 90.0 °F 94.5 °F 69.1 °F 50% 30.07 in 10.0 mi East 4.6 mph - N/A   Clear
10:53 AM 93.2 °F 97.7 °F 68.0 °F 44% 30.09 in 10.0 mi NNE 3.5 mph - N/A   Clear
11:53 AM 95.0 °F 100.7 °F 69.1 °F 43% 30.07 in 10.0 mi NNW 5.8 mph - N/A   Clear
12:53 PM 97.0 °F 101.0 °F 66.9 °F 37% 30.06 in 10.0 mi Variable 6.9 mph - N/A   Clear
1:53 PM 98.1 °F 101.2 °F 64.9 °F 34% 30.04 in 10.0 mi East 5.8 mph - N/A   Clear
2:53 PM 99.0 °F 102.3 °F 64.9 °F 33% 30.02 in 10.0 mi Variable 4.6 mph - N/A   Partly Cloudy
3:53 PM 100.9 °F 104.6 °F 64.9 °F 31% 29.99 in 10.0 mi Calm Calm - N/A   Partly Cloudy
4:53 PM 100.9 °F 104.6 °F 64.9 °F 31% 29.98 in 10.0 mi West 8.1 mph - N/A   Scattered Clouds
5:53 PM 102.0 °F 105.2 °F 64.0 °F 29% 29.96 in 10.0 mi Calm Calm - N/A   Clear
6:53 PM 100.0 °F 101.8 °F 63.0 °F 29% 29.97 in 10.0 mi Variable 4.6 mph - N/A   Clear
7:53 PM 96.1 °F 98.8 °F 64.9 °F 36% 30.00 in 10.0 mi East 4.6 mph - N/A   Clear
8:53 PM 93.9 °F 97.5 °F 66.9 °F 41% 30.00 in 10.0 mi ENE 5.8 mph - N/A   Clear
9:53 PM 91.9 °F 95.4 °F 66.9 °F 44% 30.01 in 10.0 mi NE 6.9 mph - N/A   Clear
10:53 PM 90.0 °F 92.8 °F 66.9 °F 46% 30.03 in 10.0 mi NE 6.9 mph - N/A   Partly Cloudy
11:53 PM 86.0 °F 89.4 °F 68.0 °F 55% 30.05 in 10.0 mi ENE 6.9 mph - N/A   Clear